Location: Andershausen
(51.8462°N, 9.8595°E)
Time: 12:10:32
(UTC+00:00)

Cosmos 2369 Rocket - Pass Details

Date: 18 November 2025
Orbit: 826 x 853 km, 71.0° (Epoch: 10 December)

Event Time Altitude Azimuth Distance (km) Brightness Sun altitude
Rises 17:46:53 0° 169° (S) 3,359 5.3 -21.4°
Reaches altitude 10° 17:49:40 10° 157° (SSE) 2,434 4.4 -21.8°
Enters shadow 17:50:15 12° 153° (SSE) 2,263 4.2 -21.9°
